,,Stat5,,Stat1,,Stat2,,Stat3,,Stat4,,Wind1,,Wind1,
time,status,PA1M_AVG,status,PR1M_SUM,status,RH1M_AVG,status,SR1M_AVG,status,TA1M_AVG,status,W1dAve1m,status,W1sAve1m,
2000-10-31, 00:00:00,VALID,918.133,VALID,0,VALID,99.5285,VALID,-0.0169808,VALID,19.0573,VALID,77,VALID,0.634252,
2000-10-31, 00:01:00,VALID,918.12,VALID,0,VALID,99.5285,VALID,0.0169808,VALID,19.0638,VALID,74,VALID,0.557813,
2000-10-31, 00:02:00,VALID,918.114,VALID,0,VALID,99.5132,VALID,0,VALID,19.0571,VALID,95,VALID,0.711648,
2000-10-31, 00:03:00,VALID,918.118,VALID,0,VALID,99.531,VALID,-0.0169808,VALID,19.0628,VALID,99,VALID,0.619243,
2000-10-31, 00:04:00,VALID,918.129,VALID,0,VALID,99.5348,VALID,0,VALID,19.073,VALID,102,VALID,0.440848,
2000-10-31, 00:05:00,VALID,918.116,VALID,0,VALID,99.5425,VALID,0.0169808,VALID,19.0762,VALID,102,VALID,0.695313,
2000-10-31, 00:06:00,VALID,918.104,VALID,0,VALID,99.5514,VALID,0,VALID,19.0991,VALID,90,VALID,0.686061,
2000-10-31, 00:07:00,VALID,918.095,VALID,0,VALID,99.545,VALID,0.0169808,VALID,19.0958,VALID,90,VALID,0.581696,
2000-10-31, 00:08:00,VALID,918.094,VALID,0,VALID,99.5552,VALID,0.0509425,VALID,19.0988,VALID,87,VALID,0.821832,
2000-10-31, 00:09:00,VALID,918.097,VALID,0,VALID,99.5501,VALID,0.0169808,VALID,19.0991,VALID,86,VALID,0.968328,
2000-10-31, 00:10:00,VALID,918.103,VALID,0,VALID,99.5425,VALID,0.0339617,VALID,19.0628,VALID,62,VALID,0.535684,
2000-10-31, 00:11:00,VALID,918.088,VALID,0,VALID,99.5539,VALID,0.0339617,VALID,19.0631,VALID,70,VALID,0.107537,
2000-10-31, 00:12:00,VALID,918.073,VALID,0,VALID,99.5476,VALID,0.0339617,VALID,19.0601,VALID,105,VALID,0.404247,
2000-10-31, 00:13:00,VALID,918.067,VALID,0,VALID,99.5476,VALID,0.0169808,VALID,19.0631,VALID,115,VALID,0.269965,
2000-10-31, 00:14:00,VALID,918.051,VALID,0,VALID,99.5565,VALID,0,VALID,19.0695,VALID,83,VALID,0.568015,
2000-10-31, 00:15:00,VALID,918.026,VALID,0,VALID,99.5603,VALID,0,VALID,19.0864,VALID,88,VALID,0.375217,
2000-10-31, 00:16:00,VALID,918.036,VALID,0,VALID,99.5781,VALID,0.0169808,VALID,19.0795,VALID,85,VALID,0.17296,
2000-10-31, 00:17:00,VALID,918.024,VALID,0,VALID,99.5679,VALID,0.0509425,VALID,19.069,VALID,87,VALID,0.347886,
2000-10-31, 00:18:00,VALID,918.015,VALID,0,VALID,99.5679,VALID,0,VALID,19.0762,VALID,74,VALID,0.234164,
2000-10-31, 00:19:00,VALID,918.037,VALID,0,VALID,99.5743,VALID,0,VALID,19.0889,VALID,95,VALID,0,
2000-10-31, 00:20:00,VALID,918.035,VALID,0,VALID,99.5755,VALID,0.0169808,VALID,19.0958,VALID,91,VALID,0.831439,
2000-10-31, 00:21:00,VALID,918.033,VALID,0,VALID,99.5666,VALID,0,VALID,19.0958,VALID,83,VALID,1.21854,
2000-10-31, 00:22:00,VALID,918.031,VALID,0,VALID,99.5717,VALID,0,VALID,19.0926,VALID,94,VALID,0.857897,
2000-10-31, 00:23:00,VALID,918.026,VALID,0,VALID,99.5768,VALID,0.0169808,VALID,19.0926,VALID,76,VALID,0.801136,
2000-10-31, 00:24:00,VALID,918.002,VALID,0,VALID,99.5717,VALID,0.0169808,VALID,19.0698,VALID,84,VALID,1.05707,
2000-10-31, 00:25:00,VALID,917.974,VALID,0,VALID,99.5679,VALID,0.0169808,VALID,19.0797,VALID,88,VALID,1.51345,
2000-10-31, 00:26:00,VALID,917.939,VALID,0,VALID,99.5768,VALID,0,VALID,19.0767,VALID,88,VALID,1.05997,
2000-10-31, 00:27:00,VALID,917.93,VALID,0,VALID,99.5794,VALID,-0.0169808,VALID,19.0631,VALID,91,VALID,1.00697,
2000-10-31, 00:28:00,VALID,917.903,VALID,0,VALID,99.5781,VALID,0,VALID,19.07,VALID,81,VALID,0.828125,
2000-10-31, 00:29:00,VALID,917.879,VALID,0,VALID,99.5844,VALID,0,VALID,19.0663,VALID,90,VALID,0.848485,
2000-10-31, 00:30:00,VALID,917.843,VALID,0,VALID,99.5806,VALID,0.0169808,VALID,19.0633,VALID,95,VALID,1.63936,
2000-10-31, 00:31:00,VALID,917.797,VALID,0,VALID,99.5743,VALID,0,VALID,19.067,VALID,87,VALID,1.5095,
2000-10-31, 00:32:00,VALID,917.776,VALID,0,VALID,99.573,VALID,-0.0679233,VALID,19.0647,VALID,65,VALID,1.18513,
2000-10-31, 00:33:00,VALID,917.761,VALID,0,VALID,99.5806,VALID,-0.101885,VALID,19.0491,VALID,69,VALID,0.57487,
2000-10-31, 00:34:00,VALID,917.752,VALID,0,VALID,99.5883,VALID,-0.101885,VALID,19.0454,VALID,91,VALID,0.905165,
2000-10-31, 00:35:00,VALID,917.712,VALID,0,VALID,99.601,VALID,-0.0849042,VALID,19.058,VALID,88,VALID,0.946002,
2000-10-31, 00:36:00,VALID,917.705,VALID,0,VALID,99.5972,VALID,-0.0679233,VALID,19.0546,VALID,88,VALID,0.968961,
2000-10-31, 00:37:00,VALID,917.68,VALID,0,VALID,99.5933,VALID,-0.0849042,VALID,19.0747,VALID,78,VALID,1.20335,
2000-10-31, 00:38:00,VALID,917.644,VALID,0,VALID,99.5946,VALID,-0.0169808,VALID,19.0578,VALID,87,VALID,1.25189,
2000-10-31, 00:39:00,VALID,917.641,VALID,0,VALID,99.5972,VALID,-0.0849042,VALID,19.0446,VALID,68,VALID,0.795819,
2000-10-31, 00:40:00,VALID,917.625,VALID,0,VALID,99.5933,VALID,-0.0849042,VALID,19.0451,VALID,90,VALID,1.23691,
2000-10-31, 00:41:00,VALID,917.592,VALID,0,VALID,99.587,VALID,-0.0679233,VALID,19.0516,VALID,69,VALID,0.919981,
2000-10-31, 00:42:00,VALID,917.587,VALID,0,VALID,99.601,VALID,-0.0849042,VALID,19.0518,VALID,87,VALID,1.23546,
2000-10-31, 00:43:00,VALID,917.552,VALID,0,VALID,99.5857,VALID,-0.0849042,VALID,19.0516,VALID,90,VALID,1.54796,
2000-10-31, 00:44:00,VALID,917.513,VALID,0,VALID,99.5895,VALID,-0.101885,VALID,19.0585,VALID,73,VALID,1.12385,
2000-10-31, 00:45:00,VALID,917.492,VALID,0,VALID,99.5984,VALID,-0.0849042,VALID,19.0483,VALID,84,VALID,1.1459,
2000-10-31, 00:46:00,VALID,917.481,VALID,0,VALID,99.5921,VALID,-0.0849042,VALID,19.0421,VALID,81,VALID,1.58839,
2000-10-31, 00:47:00,VALID,917.466,VALID,0.2,VALID,99.5921,VALID,-0.0849042,VALID,19.0382,VALID,75,VALID,1.19366,
2000-10-31, 00:48:00,VALID,917.475,VALID,0,VALID,99.5972,VALID,-0.0679233,VALID,19.0488,VALID,78,VALID,1.07897,
2000-10-31, 00:49:00,VALID,917.479,VALID,0,VALID,99.6035,VALID,-0.101885,VALID,19.0387,VALID,98,VALID,0.720861,
2000-10-31, 00:50:00,VALID,917.479,VALID,0,VALID,99.5959,VALID,-0.0849042,VALID,19.0613,VALID,98,VALID,0.468277,
2000-10-31, 00:51:00,VALID,917.473,VALID,0,VALID,99.5933,VALID,-0.0849042,VALID,19.0712,VALID,98,VALID,0.186632,
2000-10-31, 00:52:00,VALID,917.465,VALID,0,VALID,99.6073,VALID,-0.0849042,VALID,19.0749,VALID,140,VALID,0,
2000-10-31, 00:53:00,VALID,917.455,VALID,0,VALID,99.6099,VALID,-0.101885,VALID,19.0647,VALID,184,VALID,0.00988051,
2000-10-31, 00:54:00,VALID,917.454,VALID,0,VALID,99.5997,VALID,-0.0679233,VALID,19.0645,VALID,359,VALID,0.649916,
2000-10-31, 00:55:00,VALID,917.43,VALID,0,VALID,99.5895,VALID,-0.0849042,VALID,19.0548,VALID,350,VALID,0.310268,
2000-10-31, 00:56:00,VALID,917.415,VALID,0,VALID,99.6048,VALID,-0.0679233,VALID,19.0675,VALID,75,VALID,0,
2000-10-31, 00:57:00,VALID,917.394,VALID,0,VALID,99.6048,VALID,-0.0849042,VALID,19.0707,VALID,107,VALID,0,
2000-10-31, 00:58:00,VALID,917.36,VALID,0,VALID,99.62,VALID,-0.101885,VALID,19.0901,VALID,87,VALID,0.594595,
2000-10-31, 00:59:00,VALID,917.355,VALID,0,VALID,99.6162,VALID,-0.101885,VALID,19.0938,VALID,88,VALID,0.813684,
2000-10-31, 01:00:00,VALID,917.351,VALID,0,VALID,99.5997,VALID,-0.101885,VALID,19.0941,VALID,79,VALID,0.359809,
2000-10-31, 01:01:00,VALID,917.336,VALID,0,VALID,99.601,VALID,-0.101885,VALID,19.0677,VALID,56,VALID,0.310981,
2000-10-31, 01:02:00,VALID,917.337,VALID,0,VALID,99.6086,VALID,-0.101885,VALID,19.0906,VALID,79,VALID,0.0144761,
2000-10-31, 01:03:00,VALID,917.351,VALID,0,VALID,99.6137,VALID,-0.101885,VALID,19.0938,VALID,81,VALID,0,
2000-10-31, 01:04:00,VALID,917.331,VALID,0,VALID,99.6226,VALID,-0.0849042,VALID,19.1169,VALID,92,VALID,0.0723214,
2000-10-31, 01:05:00,VALID,917.313,VALID,0,VALID,99.6226,VALID,-0.101885,VALID,19.1197,VALID,97,VALID,0.638258,
2000-10-31, 01:06:00,VALID,917.294,VALID,0,VALID,99.6162,VALID,-0.0849042,VALID,19.1197,VALID,100,VALID,0.854307,
2000-10-31, 01:07:00,VALID,917.261,VALID,0,VALID,99.6022,VALID,-0.0849042,VALID,19.1231,VALID,79,VALID,1.04835,
2000-10-31, 01:08:00,VALID,917.254,VALID,0,VALID,99.6124,VALID,-0.118866,VALID,19.1134,VALID,100,VALID,0.536458,
2000-10-31, 01:09:00,VALID,917.25,VALID,0,VALID,99.601,VALID,-0.101885,VALID,19.1231,VALID,100,VALID,0.481988,
2000-10-31, 01:10:00,VALID,917.233,VALID,0,VALID,99.6111,VALID,-0.0849042,VALID,19.1264,VALID,94,VALID,0.973524,
2000-10-31, 01:11:00,VALID,917.221,VALID,0,VALID,99.6022,VALID,-0.0849042,VALID,19.1192,VALID,89,VALID,0.918888,
2000-10-31, 01:12:00,VALID,917.21,VALID,0,VALID,99.6022,VALID,-0.0509425,VALID,19.1229,VALID,101,VALID,1.00021,
2000-10-31, 01:13:00,VALID,917.197,VALID,0,VALID,99.6061,VALID,-0.0679233,VALID,19.1261,VALID,95,VALID,0.819643,
2000-10-31, 01:14:00,VALID,917.206,VALID,0,VALID,99.5946,VALID,-0.101885,VALID,19.1095,VALID,104,VALID,0.223485,
2000-10-31, 01:15:00,VALID,917.201,VALID,0,VALID,99.5984,VALID,-0.0679233,VALID,19.0936,VALID,117,VALID,0.00105574,
2000-10-31, 01:16:00,VALID,917.199,VALID,0,VALID,99.5997,VALID,-0.0849042,VALID,19.1067,VALID,114,VALID,0.0707348,
2000-10-31, 01:17:00,VALID,917.202,VALID,0,VALID,99.6099,VALID,-0.0679233,VALID,19.1264,VALID,114,VALID,0,
2000-10-31, 01:18:00,VALID,917.199,VALID,0,VALID,99.6111,VALID,-0.0679233,VALID,19.1256,VALID,114,VALID,0,
2000-10-31, 01:19:00,VALID,917.169,VALID,0,VALID,99.6111,VALID,-0.101885,VALID,19.1326,VALID,121,VALID,0,
2000-10-31, 01:20:00,VALID,917.165,VALID,0,VALID,99.5997,VALID,-0.101885,VALID,19.1229,VALID,203,VALID,0.0137868,
2000-10-31, 01:21:00,VALID,917.156,VALID,0,VALID,99.6035,VALID,-0.0509425,VALID,19.1256,VALID,230,VALID,0.00105574,
2000-10-31, 01:22:00,VALID,917.126,VALID,0,VALID,99.6073,VALID,-0.101885,VALID,19.1286,VALID,249,VALID,0,
2000-10-31, 01:23:00,VALID,917.119,VALID,0,VALID,99.6035,VALID,-0.101885,VALID,19.1457,VALID,240,VALID,0,
2000-10-31, 01:24:00,VALID,917.064,VALID,0,VALID,99.6073,VALID,-0.0849042,VALID,19.1353,VALID,233,VALID,0,
2000-10-31, 01:25:00,VALID,917.028,VALID,0,VALID,99.6048,VALID,-0.0849042,VALID,19.1386,VALID,222,VALID,0,
2000-10-31, 01:26:00,VALID,917.009,VALID,0,VALID,99.6048,VALID,-0.0679233,VALID,19.1485,VALID,97,VALID,0,
2000-10-31, 01:27:00,VALID,916.989,VALID,0,VALID,99.601,VALID,-0.0679233,VALID,19.1485,VALID,104,VALID,0.275825,
2000-10-31, 01:28:00,VALID,916.963,VALID,0,VALID,99.615,VALID,-0.0849042,VALID,19.1485,VALID,107,VALID,0,
2000-10-31, 01:29:00,VALID,916.951,VALID,0,VALID,99.6073,VALID,-0.0849042,VALID,19.1552,VALID,95,VALID,0,
2000-10-31, 01:30:00,VALID,916.932,VALID,0,VALID,99.6099,VALID,-0.0679233,VALID,19.1617,VALID,95,VALID,0,
2000-10-31, 01:31:00,VALID,916.933,VALID,0,VALID,99.601,VALID,-0.0509425,VALID,19.1646,VALID,95,VALID,0,
2000-10-31, 01:32:00,VALID,916.918,VALID,0,VALID,99.5895,VALID,0.0169808,VALID,19.157,VALID,96,VALID,0.255682,
2000-10-31, 01:33:00,VALID,916.919,VALID,0,VALID,99.5755,VALID,0,VALID,19.147,VALID,91,VALID,0.800253,
2000-10-31, 01:34:00,VALID,916.908,VALID,0,VALID,99.5781,VALID,0.0339617,VALID,19.1341,VALID,102,VALID,0.737542,
2000-10-31, 01:35:00,VALID,916.897,VALID,0,VALID,99.5844,VALID,0,VALID,19.1403,VALID,91,VALID,0.474905,
2000-10-31, 01:36:00,VALID,916.883,VALID,0,VALID,99.5717,VALID,0.0169808,VALID,19.1344,VALID,102,VALID,0.459635,
2000-10-31, 01:37:00,VALID,916.875,VALID,0,VALID,99.5781,VALID,0.0339617,VALID,19.1244,VALID,99,VALID,0.494792,
2000-10-31, 01:38:00,VALID,916.872,VALID,0,VALID,99.5743,VALID,0.0169808,VALID,19.1242,VALID,71,VALID,0.476792,
2000-10-31, 01:39:00,VALID,916.884,VALID,0,VALID,99.573,VALID,0.0339617,VALID,19.1145,VALID,63,VALID,0,
2000-10-31, 01:40:00,VALID,916.885,VALID,0,VALID,99.5692,VALID,0.0339617,VALID,19.118,VALID,63,VALID,0.0982143,
2000-10-31, 01:41:00,VALID,916.86,VALID,0,VALID,99.5743,VALID,0.0509425,VALID,19.1177,VALID,72,VALID,0.320549,
2000-10-31, 01:42:00,VALID,916.858,VALID,0,VALID,99.5743,VALID,0,VALID,19.1281,VALID,79,VALID,0.00527872,
2000-10-31, 01:43:00,VALID,916.862,VALID,0,VALID,99.5743,VALID,0.0169808,VALID,19.1244,VALID,77,VALID,0,
2000-10-31, 01:44:00,VALID,916.874,VALID,0,VALID,99.5768,VALID,0.0169808,VALID,19.1274,VALID,87,VALID,0.0314867,
2000-10-31, 01:45:00,VALID,916.887,VALID,0,VALID,99.5743,VALID,0.0339617,VALID,19.1341,VALID,91,VALID,0.725911,
2000-10-31, 01:46:00,VALID,916.857,VALID,0,VALID,99.5806,VALID,0.0169808,VALID,19.1212,VALID,103,VALID,0.877387,
2000-10-31, 01:47:00,VALID,916.852,VALID,0,VALID,99.5844,VALID,0.0339617,VALID,19.1381,VALID,82,VALID,0.52045,
2000-10-31, 01:48:00,VALID,916.847,VALID,0,VALID,99.5908,VALID,0.0169808,VALID,19.1441,VALID,85,VALID,0.156039,
2000-10-31, 01:49:00,VALID,916.841,VALID,0,VALID,99.5857,VALID,0.0169808,VALID,19.1438,VALID,86,VALID,0,
2000-10-31, 01:50:00,VALID,916.821,VALID,0,VALID,99.5933,VALID,0.0339617,VALID,19.147,VALID,101,VALID,0.160275,
2000-10-31, 01:51:00,VALID,916.788,VALID,0,VALID,99.587,VALID,0.0169808,VALID,19.1473,VALID,79,VALID,0.579181,
2000-10-31, 01:52:00,VALID,916.77,VALID,0,VALID,99.5806,VALID,0.0679233,VALID,19.1408,VALID,81,VALID,0.6856,
2000-10-31, 01:53:00,VALID,916.757,VALID,0,VALID,99.5883,VALID,0.0169808,VALID,19.1376,VALID,75,VALID,0.314631,
2000-10-31, 01:54:00,VALID,916.771,VALID,0,VALID,99.587,VALID,0,VALID,19.1244,VALID,59,VALID,0.108507,
2000-10-31, 01:55:00,VALID,916.758,VALID,0,VALID,99.5895,VALID,0,VALID,19.1344,VALID,60,VALID,0.209635,
2000-10-31, 01:56:00,VALID,916.757,VALID,0,VALID,99.5806,VALID,0,VALID,19.1247,VALID,65,VALID,0.424173,
2000-10-31, 01:57:00,VALID,916.735,VALID,0,VALID,99.5819,VALID,0.0169808,VALID,19.1252,VALID,57,VALID,0.708615,
2000-10-31, 01:58:00,VALID,916.762,VALID,0,VALID,99.5704,VALID,0.0169808,VALID,19.1155,VALID,55,VALID,0.753571,
2000-10-31, 01:59:00,VALID,916.779,VALID,0,VALID,99.5883,VALID,0,VALID,19.1217,VALID,83,VALID,0.574337,
2000-10-31, 02:00:00,VALID,916.783,VALID,0,VALID,99.5921,VALID,0,VALID,19.1247,VALID,98,VALID,0.597551,
2000-10-31, 02:01:00,VALID,916.754,VALID,0,VALID,99.6048,VALID,0,VALID,19.1374,VALID,89,VALID,0.841216,
2000-10-31, 02:02:00,VALID,916.738,VALID,0,VALID,99.601,VALID,0,VALID,19.1314,VALID,89,VALID,0.92732,
2000-10-31, 02:03:00,VALID,916.726,VALID,0,VALID,99.6111,VALID,0,VALID,19.1512,VALID,90,VALID,0.633464,
2000-10-31, 02:04:00,VALID,916.727,VALID,0,VALID,99.6137,VALID,0,VALID,19.1542,VALID,93,VALID,0.513455,
2000-10-31, 02:05:00,VALID,916.74,VALID,0,VALID,99.615,VALID,0.0169808,VALID,19.1637,VALID,95,VALID,0.0670956,
2000-10-31, 02:06:00,VALID,916.744,VALID,0,VALID,99.6264,VALID,-0.0339617,VALID,19.1637,VALID,95,VALID,0,
2000-10-31, 02:07:00,VALID,916.734,VALID,0,VALID,99.6239,VALID,0,VALID,19.1669,VALID,93,VALID,0.0910714,
2000-10-31, 02:08:00,VALID,916.724,VALID,0,VALID,99.62,VALID,-0.0169808,VALID,19.1575,VALID,89,VALID,0.155066,
2000-10-31, 02:09:00,VALID,916.69,VALID,0,VALID,99.6162,VALID,0,VALID,19.1505,VALID,104,VALID,0.200169,
2000-10-31, 02:10:00,VALID,916.648,VALID,0,VALID,99.6213,VALID,0,VALID,19.1535,VALID,102,VALID,0.0580659,
2000-10-31, 02:11:00,VALID,916.624,VALID,0,VALID,99.6239,VALID,-0.0169808,VALID,19.1736,VALID,89,VALID,0,
2000-10-31, 02:12:00,VALID,916.635,VALID,0,VALID,99.6302,VALID,0,VALID,19.1831,VALID,90,VALID,0,
2000-10-31, 02:13:00,VALID,916.646,VALID,0,VALID,99.6251,VALID,0,VALID,19.1801,VALID,89,VALID,0,
2000-10-31, 02:14:00,VALID,916.66,VALID,0,VALID,99.6239,VALID,0,VALID,19.1734,VALID,92,VALID,0.341222,
2000-10-31, 02:15:00,VALID,916.644,VALID,0,VALID,99.6251,VALID,0,VALID,19.1898,VALID,89,VALID,1.10114,
2000-10-31, 02:16:00,VALID,916.626,VALID,0,VALID,99.6239,VALID,0,VALID,19.1801,VALID,97,VALID,0.73058,
2000-10-31, 02:17:00,VALID,916.617,VALID,0,VALID,99.6226,VALID,-0.0169808,VALID,19.1831,VALID,108,VALID,0.445549,
2000-10-31, 02:18:00,VALID,916.604,VALID,0,VALID,99.6239,VALID,0.0169808,VALID,19.193,VALID,106,VALID,0.491765,
2000-10-31, 02:19:00,VALID,916.586,VALID,0,VALID,99.6251,VALID,-0.0169808,VALID,19.1965,VALID,108,VALID,0.352407,
2000-10-31, 02:20:00,VALID,916.594,VALID,0,VALID,99.6328,VALID,0,VALID,19.1995,VALID,109,VALID,0,
2000-10-31, 02:21:00,VALID,916.601,VALID,0,VALID,99.6315,VALID,0,VALID,19.2022,VALID,109,VALID,0,
2000-10-31, 02:22:00,VALID,916.619,VALID,0,VALID,99.6264,VALID,0,VALID,19.2057,VALID,109,VALID,0,
2000-10-31, 02:23:00,VALID,916.617,VALID,0,VALID,99.6264,VALID,0,VALID,19.1995,VALID,108,VALID,0,
2000-10-31, 02:24:00,VALID,916.602,VALID,0,VALID,99.6251,VALID,0,VALID,19.189,VALID,39,VALID,0.196157,
2000-10-31, 02:25:00,VALID,916.596,VALID,0,VALID,99.6124,VALID,0,VALID,19.157,VALID,55,VALID,0.441071,
2000-10-31, 02:26:00,VALID,916.588,VALID,0,VALID,99.615,VALID,0,VALID,19.1406,VALID,84,VALID,0.945786,
2000-10-31, 02:27:00,VALID,916.561,VALID,0,VALID,99.6175,VALID,0.0169808,VALID,19.1604,VALID,91,VALID,1.10072,
2000-10-31, 02:28:00,VALID,916.565,VALID,0,VALID,99.6251,VALID,0,VALID,19.1572,VALID,83,VALID,0.439823,
2000-10-31, 02:29:00,VALID,916.578,VALID,0,VALID,99.6213,VALID,0,VALID,19.1572,VALID,84,VALID,0.155066,
2000-10-31, 02:30:00,VALID,916.579,VALID,0,VALID,99.6289,VALID,0,VALID,19.1508,VALID,84,VALID,0.00108507,
2000-10-31, 02:31:00,VALID,916.581,VALID,0,VALID,99.634,VALID,0.0509425,VALID,19.1408,VALID,83,VALID,0.0175781,
2000-10-31, 02:32:00,VALID,916.571,VALID,0,VALID,99.6315,VALID,0,VALID,19.1416,VALID,86,VALID,0.242877,
2000-10-31, 02:33:00,VALID,916.567,VALID,0,VALID,99.6302,VALID,0,VALID,19.1441,VALID,95,VALID,0.374789,
2000-10-31, 02:34:00,VALID,916.562,VALID,0,VALID,99.6455,VALID,0,VALID,19.1607,VALID,99,VALID,0.449107,
2000-10-31, 02:35:00,VALID,916.56,VALID,0,VALID,99.6353,VALID,0.0169808,VALID,19.1798,VALID,111,VALID,0.289536,
2000-10-31, 02:36:00,VALID,916.542,VALID,0,VALID,99.6404,VALID,0,VALID,19.1697,VALID,97,VALID,0.410051,
2000-10-31, 02:37:00,VALID,916.538,VALID,0,VALID,99.6455,VALID,0,VALID,19.1798,VALID,98,VALID,0.00232264,
2000-10-31, 02:38:00,VALID,916.528,VALID,0,VALID,99.6391,VALID,-0.0169808,VALID,19.1726,VALID,98,VALID,0,
2000-10-31, 02:39:00,VALID,916.519,VALID,0,VALID,99.6328,VALID,0.0169808,VALID,19.1865,VALID,98,VALID,0.160156,
2000-10-31, 02:40:00,VALID,916.515,VALID,0,VALID,99.6277,VALID,0.0509425,VALID,19.1828,VALID,58,VALID,0.352865,
2000-10-31, 02:41:00,VALID,916.506,VALID,0,VALID,99.6378,VALID,0,VALID,19.1764,VALID,106,VALID,0.300551,
2000-10-31, 02:42:00,VALID,916.489,VALID,0,VALID,99.6404,VALID,0,VALID,19.1729,VALID,96,VALID,0.812078,
2000-10-31, 02:43:00,VALID,916.491,VALID,0,VALID,99.6353,VALID,0,VALID,19.1764,VALID,93,VALID,0.660491,
2000-10-31, 02:44:00,VALID,916.483,VALID,0,VALID,99.6353,VALID,0,VALID,19.1701,VALID,106,VALID,0.550189,
2000-10-31, 02:45:00,VALID,916.474,VALID,0,VALID,99.6391,VALID,-0.0169808,VALID,19.1835,VALID,80,VALID,0.585515,
2000-10-31, 02:46:00,VALID,916.458,VALID,0,VALID,99.6404,VALID,0.0169808,VALID,19.1438,VALID,90,VALID,0.70228,
2000-10-31, 02:47:00,VALID,916.454,VALID,0,VALID,99.6302,VALID,0,VALID,19.1537,VALID,102,VALID,0.497396,
2000-10-31, 02:48:00,VALID,916.483,VALID,0,VALID,99.6442,VALID,-0.0169808,VALID,19.1704,VALID,106,VALID,0.353516,
2000-10-31, 02:49:00,VALID,916.468,VALID,0,VALID,99.6493,VALID,0,VALID,19.1669,VALID,103,VALID,0.639974,
2000-10-31, 02:50:00,VALID,916.46,VALID,0,VALID,99.648,VALID,0,VALID,19.1764,VALID,103,VALID,0.922794,
2000-10-31, 02:51:00,VALID,916.452,VALID,0,VALID,99.6455,VALID,0,VALID,19.1893,VALID,105,VALID,0.690034,
2000-10-31, 02:52:00,VALID,916.439,VALID,0,VALID,99.6353,VALID,-0.0169808,VALID,19.1863,VALID,88,VALID,0.63058,
2000-10-31, 02:53:00,VALID,916.446,VALID,0,VALID,99.6468,VALID,-0.0169808,VALID,19.1771,VALID,88,VALID,0.039536,
2000-10-31, 02:54:00,VALID,916.419,VALID,0,VALID,99.6442,VALID,0,VALID,19.1764,VALID,103,VALID,0.0977618,
2000-10-31, 02:55:00,VALID,916.404,VALID,0,VALID,99.648,VALID,-0.0169808,VALID,19.1764,VALID,105,VALID,0.655194,
2000-10-31, 02:56:00,VALID,916.393,VALID,0,VALID,99.6442,VALID,0,VALID,19.1604,VALID,87,VALID,1.04048,
2000-10-31, 02:57:00,VALID,916.388,VALID,0,VALID,99.6315,VALID,0,VALID,19.1346,VALID,54,VALID,0.772786,
2000-10-31, 02:58:00,VALID,916.398,VALID,0,VALID,99.6315,VALID,0,VALID,19.1214,VALID,72,VALID,0.111545,
2000-10-31, 02:59:00,VALID,916.388,VALID,0,VALID,99.6328,VALID,0.0169808,VALID,19.1281,VALID,95,VALID,0.0386029,
2000-10-31, 03:00:00,VALID,916.366,VALID,0,VALID,99.6328,VALID,0,VALID,19.1249,VALID,100,VALID,0.295608,
2000-10-31, 03:01:00,VALID,916.355,VALID,0,VALID,99.6455,VALID,0,VALID,19.1247,VALID,82,VALID,0.195313,
2000-10-31, 03:02:00,VALID,916.348,VALID,0,VALID,99.6315,VALID,-0.0849042,VALID,19.113,VALID,102,VALID,0,
2000-10-31, 03:03:00,VALID,916.351,VALID,0,VALID,99.6391,VALID,-0.101885,VALID,19.1035,VALID,102,VALID,0,
2000-10-31, 03:04:00,VALID,916.363,VALID,0,VALID,99.6277,VALID,-0.101885,VALID,19.097,VALID,102,VALID,0,
2000-10-31, 03:05:00,VALID,916.344,VALID,0,VALID,99.6455,VALID,-0.0849042,VALID,19.107,VALID,102,VALID,0,
2000-10-31, 03:06:00,VALID,916.306,VALID,0,VALID,99.6328,VALID,-0.101885,VALID,19.0839,VALID,94,VALID,0,
2000-10-31, 03:07:00,VALID,916.284,VALID,0,VALID,99.6264,VALID,-0.0849042,VALID,19.0844,VALID,99,VALID,0,
2000-10-31, 03:08:00,VALID,916.27,VALID,0,VALID,99.6302,VALID,-0.101885,VALID,19.0844,VALID,97,VALID,0,
2000-10-31, 03:09:00,VALID,916.272,VALID,0,VALID,99.6378,VALID,-0.101885,VALID,19.0777,VALID,97,VALID,0,
2000-10-31, 03:10:00,VALID,916.274,VALID,0,VALID,99.634,VALID,-0.0849042,VALID,19.0712,VALID,97,VALID,0,
2000-10-31, 03:11:00,VALID,916.26,VALID,0,VALID,99.6328,VALID,-0.101885,VALID,19.0618,VALID,96,VALID,0,
2000-10-31, 03:12:00,VALID,916.226,VALID,0,VALID,99.6302,VALID,-0.118866,VALID,19.0387,VALID,108,VALID,0,
2000-10-31, 03:13:00,VALID,916.213,VALID,0,VALID,99.6366,VALID,-0.101885,VALID,19.0389,VALID,122,VALID,0,
2000-10-31, 03:14:00,VALID,916.187,VALID,0,VALID,99.6302,VALID,-0.101885,VALID,19.0287,VALID,121,VALID,0,
2000-10-31, 03:15:00,VALID,916.143,VALID,0,VALID,99.6391,VALID,-0.118866,VALID,19.023,VALID,110,VALID,0,
2000-10-31, 03:16:00,VALID,916.119,VALID,0,VALID,99.6417,VALID,-0.101885,VALID,19.0391,VALID,94,VALID,0,
2000-10-31, 03:17:00,VALID,916.11,VALID,0,VALID,99.6429,VALID,-0.101885,VALID,19.0227,VALID,111,VALID,0,
2000-10-31, 03:18:00,VALID,916.113,VALID,0,VALID,99.6366,VALID,-0.101885,VALID,19.0227,VALID,124,VALID,0,
2000-10-31, 03:19:00,VALID,916.115,VALID,0,VALID,99.6277,VALID,-0.0849042,VALID,19.0066,VALID,121,VALID,0,
2000-10-31, 03:20:00,VALID,916.125,VALID,0,VALID,99.6353,VALID,-0.0849042,VALID,19.0001,VALID,121,VALID,0,
2000-10-31, 03:21:00,VALID,916.128,VALID,0,VALID,99.6455,VALID,-0.0849042,VALID,18.9907,VALID,107,VALID,0,
2000-10-31, 03:22:00,VALID,916.135,VALID,0,VALID,99.6417,VALID,-0.101885,VALID,18.981,VALID,95,VALID,0,
2000-10-31, 03:23:00,VALID,916.145,VALID,0,VALID,99.6366,VALID,-0.0679233,VALID,18.9639,VALID,95,VALID,0,
2000-10-31, 03:24:00,VALID,916.135,VALID,0,VALID,99.6442,VALID,-0.101885,VALID,18.9713,VALID,96,VALID,0,
2000-10-31, 03:25:00,VALID,916.111,VALID,0,VALID,99.6506,VALID,-0.0849042,VALID,18.9681,VALID,95,VALID,0,
2000-10-31, 03:26:00,VALID,916.086,VALID,0,VALID,99.6595,VALID,-0.101885,VALID,18.9616,VALID,94,VALID,0,
2000-10-31, 03:27:00,VALID,916.102,VALID,0,VALID,99.6544,VALID,-0.0849042,VALID,18.9581,VALID,94,VALID,0,
2000-10-31, 03:28:00,VALID,916.096,VALID,0,VALID,99.6506,VALID,-0.0849042,VALID,18.9484,VALID,94,VALID,0,
2000-10-31, 03:29:00,VALID,916.08,VALID,0,VALID,99.6633,VALID,-0.0849042,VALID,18.9551,VALID,94,VALID,0,
2000-10-31, 03:30:00,VALID,916.072,VALID,0,VALID,99.6633,VALID,-0.0849042,VALID,18.9417,VALID,94,VALID,0,
2000-10-31, 03:31:00,VALID,916.087,VALID,0,VALID,99.6518,VALID,-0.101885,VALID,18.939,VALID,94,VALID,0,
2000-10-31, 03:32:00,VALID,916.088,VALID,0,VALID,99.6404,VALID,-0.0849042,VALID,18.9258,VALID,94,VALID,0,
2000-10-31, 03:33:00,VALID,916.078,VALID,0,VALID,99.6404,VALID,-0.101885,VALID,18.9132,VALID,94,VALID,0,
2000-10-31, 03:34:00,VALID,916.087,VALID,0,VALID,99.6417,VALID,-0.118866,VALID,18.8968,VALID,94,VALID,0,
2000-10-31, 03:35:00,VALID,916.089,VALID,0,VALID,99.6442,VALID,-0.101885,VALID,18.8938,VALID,125,VALID,0,
2000-10-31, 03:36:00,VALID,916.083,VALID,0,VALID,99.6493,VALID,-0.101885,VALID,18.9035,VALID,101,VALID,0,
2000-10-31, 03:37:00,VALID,916.071,VALID,0,VALID,99.6404,VALID,-0.101885,VALID,18.8938,VALID,98,VALID,0.249554,